Location: Geçitköy
(36.7327°N, 29.8010°E)
Time: 19:10:33
(UTC+00:00)

ARIANE 5 R/B - Pass Details

Date: 12 January 2026
Orbit: 746 x 793 km, 98.8° (Epoch: 11 February)

Event Time Altitude Azimuth Distance (km) Brightness Sun altitude
Rises 16:23:42 0° 185° (S) 3,266 6.0 -15.5°
Reaches altitude 10° 16:26:09 10° 193° (SSW) 2,346 5.4 -16.0°
Maximum altitude 16:30:59 39° 261° (W) 1,173 4.1 -16.9°
Drops below altitude 10° 16:35:51 10° 330° (NNW) 2,364 5.2 -17.8°
Sets 16:38:20 0° 338° (NNW) 3,296 5.9 -18.3°
